Location: Beddau
(51.5575°N, 3.3561°W)
Time: 12:48:05
(UTC+00:00)

Okean 3 - Pass Details

Date: 03 March 2021
Orbit: 577 x 600 km, 82.5° (Epoch: 16 April)

Event Time Altitude Azimuth Distance (km) Brightness Sun altitude
Rises 20:11:37 0° 348° (NNW) 2,833 7.4 -21.4°
Reaches altitude 10° 20:13:49 10° 346° (NNW) 1,931 6.5 -21.7°
Maximum altitude 20:18:04 74° 263° (W) 624 3.6 -22.4°
Enters shadow 20:19:35 39° 187° (S) 900 4.2 -22.6°
